Prescott, AZ

12:46 PM MST on November 13, 2019 (GMT -0700)
Love

Weather History for KPRC - September, 2019

Change the Weather History Date:

Saturday, September 28, 2019

  Actual Average Record
Temperature  
Mean Temperature 62 °F 63 °F  
Max Temperature 73 °F 78 °F 91 °F (2010)
Min Temperature 52 °F 49 °F 35 °F (2013)
Degree Days  
Heating Degree Days 2    
Month to date heating degree days 22  
Since 1 July heating degree days 22  
Cooling Degree Days 0    
Month to date cooling degree days 155  
Year to date cooling degree days 1130  
Growing Degree Days 12 (Base 50)    
Moisture  
Dew Point 52 °F    
Average Humidity 69    
Maximum Humidity 93    
Minimum Humidity 44    
Precipitation  
Precipitation 0.00 in 0.04 in 0.92 in (1958)
Month to date precipitation 2.18 1.43  
Year to date precipitation 10.29 11.09  
Sea Level Pressure  
Sea Level Pressure 29.71 in    
Wind  
Wind Speed 7 mph ()    
Max Wind Speed 21 mph    
Max Gust Speed 30 mph    
Visibility 10.0 miles    
Events      
T = Trace of Precipitation, MM = Missing Value Source: Averaged Metar Reports

Daily Weather History Graph

Daily Weather History Graph

Search for Another Location

Airport or City:

Astronomy

Sep. 28, 2019 Rise Set
Actual Time 6:22 AM MST 6:18 PM MST
Civil Twilight 5:56 AM MST 6:43 PM MST
Nautical Twilight 5:27 AM MST 7:12 PM MST
Astronomical Twilight 4:58 AM MST 7:41 PM MST
Moon 6:06 AM MST (9/28) 6:44 PM MST (9/28)
Length of Visible Light 12h 46m
Length of Day
11h 56m
New Moon, 0% of the Moon is Illuminated
Sep 28
New Moon
Oct 5
First Quarter
Oct 13
Full
Oct 21
Last Quarter
Oct 27
New

Hourly Weather History & Observations

Time (MST) Temp. Dew Point Humidity Pressure Visibility Wind Dir Wind Speed Gust Speed Precip Events Conditions
12:53 AM 55.9 °F 54.0 °F 93% 29.75 in 10.0 mi South 3.5 mph - N/A   Clear
1:53 AM 57.0 °F 55.0 °F 93% 29.73 in 10.0 mi SE 5.8 mph - N/A   Clear
2:53 AM 55.0 °F 52.0 °F 89% 29.71 in 10.0 mi Calm Calm - N/A   Clear
3:53 AM 53.1 °F 51.1 °F 93% 29.71 in 10.0 mi South 4.6 mph - N/A   Clear
4:53 AM 53.1 °F 51.1 °F 93% 29.71 in 10.0 mi SSW 3.5 mph - N/A   Clear
5:53 AM 53.1 °F 51.1 °F 93% 29.73 in 10.0 mi SE 5.8 mph - N/A   Clear
6:53 AM 55.9 °F 53.1 °F 90% 29.75 in 10.0 mi South 4.6 mph - N/A   Scattered Clouds
7:06 AM 57.0 °F 54.0 °F 89% 29.93 in 10.0 mi SSE 6.9 mph - N/A   Partly Cloudy
7:53 AM 59.0 °F 55.0 °F 87% 29.76 in 10.0 mi SE 6.9 mph - N/A   Scattered Clouds
8:53 AM 63.0 °F 55.0 °F 75% 29.75 in 10.0 mi SE 8.1 mph - N/A   Scattered Clouds
9:53 AM 66.0 °F 52.0 °F 60% 29.75 in 10.0 mi South 10.4 mph 17.3 mph N/A   Scattered Clouds
10:53 AM 69.1 °F 52.0 °F 54% 29.74 in 10.0 mi SSW 15.0 mph 19.6 mph N/A   Scattered Clouds
11:53 AM 71.1 °F 51.1 °F 49% 29.72 in 10.0 mi SW 16.1 mph - N/A   Scattered Clouds
12:53 PM 71.1 °F 51.1 °F 49% 29.70 in 10.0 mi South 15.0 mph 24.2 mph N/A   Scattered Clouds
1:53 PM 72.0 °F 50.0 °F 46% 29.67 in 10.0 mi South 12.7 mph - N/A   Scattered Clouds
2:53 PM 71.1 °F 48.9 °F 45% 29.67 in 10.0 mi SSW 13.8 mph 20.7 mph N/A   Scattered Clouds
3:53 PM 72.0 °F 48.9 °F 44% 29.66 in 10.0 mi SSW 15.0 mph 25.3 mph N/A   Scattered Clouds
4:53 PM 70.0 °F 50.0 °F 49% 29.65 in 10.0 mi South 13.8 mph 23.0 mph N/A   Clear
5:53 PM 66.9 °F 50.0 °F 54% 29.67 in 10.0 mi South 12.7 mph - N/A   Partly Cloudy
6:53 PM 66.0 °F 51.1 °F 59% 29.66 in 10.0 mi South 8.1 mph - N/A   Clear
7:53 PM 64.9 °F 52.0 °F 63% 29.67 in 10.0 mi South 4.6 mph - N/A   Clear
8:53 PM 64.9 °F 51.1 °F 61% 29.66 in 10.0 mi South 12.7 mph 20.7 mph N/A   Clear
9:53 PM 64.9 °F 52.0 °F 63% 29.64 in 10.0 mi SSW 12.7 mph - N/A   Clear
10:53 PM 64.0 °F 53.1 °F 67% 29.64 in 10.0 mi South 16.1 mph 25.3 mph N/A   Partly Cloudy
11:53 PM 63.0 °F 54.0 °F 72% 29.64 in 10.0 mi South 16.1 mph 23.0 mph N/A   Partly Cloudy